H1 CPF 2 NER 2025 9 29 9 272 01 glonass140 H2 1903001 9140 44299 2025 9 29 0 0 0 2025 10 2 23 45 0 900 1 1 0 0 0 1 H9 10 0 60947 0.00000 0 -8813897.958 8848921.669 -22214714.626 10 0 60947 900.00000 0 -11451516.118 8354952.054 -21179220.035 10 0 60947 1800.00000 0 -13966139.761 8072643.932 -19731307.857 10 0 60947 2700.00000 0 -16292810.745 7985859.024 -17899193.313 10 0 60947 3600.00000 0 -18372298.259 8067332.457 -15718584.360 10 0 60947 4500.00000 0 -20153379.565 8279990.646 -13231979.953 10 0 60947 5400.00000 0 -21594795.777 8578697.069 -10487834.376 10 0 60947 6300.00000 0 -22666801.134 8912350.877 -7539604.444 10 0 60947 7200.00000 0 -23352241.412 9226248.203 -4444698.927 10 0 60947 8100.00000 0 -23647117.196 9464604.933 -1263351.516 10 0 60947 9000.00000 0 -23560609.614 9573132.937 1942559.762 10 0 60947 9900.00000 0 -23114568.960 9501559.645 5110722.697 10 0 60947 10800.00000 0 -22342489.412 9205983.593 8179606.238 10 0 60947 11700.00000 0 -21288014.641 8650965.807 11089656.797 10 0 60947 12600.00000 0 -20003038.721 7811268.434 13784451.921 10 0 60947 13500.00000 0 -18545483.450 6673167.251 16211789.017 10 0 60947 14400.00000 0 -16976846.239 5235282.848 18324688.513 10 0 60947 15300.00000 0 -15359621.872 3508895.680 20082292.806 10 0 60947 16200.00000 0 -13754705.981 1517731.740 21450644.742 10 0 60947 17100.00000 0 -12218888.241 -702772.401 22403331.905 10 0 60947 18000.00000 0 -10802539.067 -3106695.000 22921985.586 10 0 60947 18900.00000 0 -9547584.983 -5639294.784 22996626.076 10 0 60947 19800.00000 0 -8485855.712 -8239048.729 22625848.657 10 0 60947 20700.00000 0 -7637870.395 -10839978.722 21816847.361 10 0 60947 21600.00000 0 -7012112.264 -13374172.173 20585276.328 10 0 60947 22500.00000 0 -6604820.939 -15774393.687 18954951.285 10 0 60947 23400.00000 0 -6400310.295 -17976681.030 16957396.335 10 0 60947 24300.00000 0 -6371798.243 -19922819.054 14631243.933 10 0 60947 25200.00000 0 -6482713.608 -21562589.948 12021498.476 10 0 60947 26100.00000 0 -6688425.512 -22855706.912 9178676.564 10 0 60947 27000.00000 0 -6938322.943 -23773351.114 6157839.348 10 0 60947 27900.00000 0 -7178157.363 -24299247.797 3017534.624 10 0 60947 28800.00000 0 -7352549.881 -24430236.224 -181331.592 10 0 60947 29700.00000 0 -7407557.186 -24176309.062 -3376672.652 10 0 60947 30600.00000 0 -7293187.465 -23560118.730 -6506425.393 10 0 60947 31500.00000 0 -6965759.256 -22615970.786 -9509757.237 10 0 60947 32400.00000 0 -6390002.492 -21388346.034 -12328252.472 10 0 60947 33300.00000 0 -5540811.361 -19930012.819 -14907054.123 10 0 60947 34200.00000 0 -4404573.180 -18299808.543 -17195938.513 10 0 60947 35100.00000 0 -2980015.212 -16560183.532 -19150300.923 10 0 60947 36000.00000 0 -1278531.576 -14774610.490 -20732032.541 10 0 60947 36900.00000 0 676025.551 -13004968.614 -21910270.958 10 0 60947 37800.00000 0 2848083.685 -11309012.465 -22662009.116 10 0 60947 38700.00000 0 5191587.555 -9738032.156 -22972550.386 10 0 60947 39600.00000 0 7651685.965 -8334803.315 -22835800.535 10 0 60947 40500.00000 0 10166798.537 -7131912.935 -22254390.555 10 0 60947 41400.00000 0 12670976.670 -6150531.297 -21239627.722 10 0 60947 42300.00000 0 15096460.410 -5399681.214 -19811275.601 10 0 60947 43200.00000 0 17376324.528 -4876034.680 -17997167.172 10 0 60947 44100.00000 0 19447103.131 -4564244.589 -15832658.615 10 0 60947 45000.00000 0 21251282.840 -4437796.428 -13359934.541 10 0 60947 45900.00000 0 22739560.074 -4460342.630 -10627178.545 10 0 60947 46800.00000 0 23872767.882 -4587461.766 -7687625.766 10 0 60947 47700.00000 0 24623391.747 -4768766.598 -4598516.674 10 0 60947 48600.00000 0 24976611.292 -4950270.272 -1419973.313 10 0 60947 49500.00000 0 24930824.997 -5076908.989 1786179.154 10 0 60947 50400.00000 0 24497637.005 -5095113.093 4957621.661 10 0 60947 51300.00000 0 23701307.966 -4955316.692 8032756.876 10 0 60947 52200.00000 0 22577694.468 -4614298.902 10951906.990 10 0 60947 53100.00000 0 21172723.059 -4037257.333 13658470.041 10 0 60947 54000.00000 0 19540464.223 -3199526.080 16100012.380 10 0 60947 54900.00000 0 17740888.009 -2087865.854 18229276.550 10 0 60947 55800.00000 0 15837395.915 -701272.054 20005085.831 10 0 60947 56700.00000 0 13894232.294 948733.058 21393129.047 10 0 60947 57600.00000 0 11973882.980 2838336.429 22366611.778 10 0 60947 58500.00000 0 10134568.779 4932188.989 22906762.703 10 0 60947 59400.00000 0 8427937.006 7184648.256 23003186.606 10 0 60947 60300.00000 0 6897045.686 9541458.031 22654058.230 10 0 60947 61200.00000 0 5574722.705 11941796.496 21866153.972 10 0 60947 62100.00000 0 4482366.680 14320609.158 20654721.104 10 0 60947 63000.00000 0 3629238.043 16611131.280 19043186.909 10 0 60947 63900.00000 0 3012268.830 18747496.611 17062712.789 10 0 60947 64800.00000 0 2616398.284 20667325.450 14751601.125 10 0 60947 65700.00000 0 2415419.821 22314185.608 12154565.165 10 0 60947 66600.00000 0 2373303.727 23639824.522 9321874.886 10 0 60947 67500.00000 0 2445940.148 24606079.993 6308394.150 10 0 60947 68400.00000 0 2583229.305 25186389.734 3172526.698 10 0 60947 69300.00000 0 2731431.044 25366836.231 -24909.345 10 0 60947 70200.00000 0 2835674.680 25146682.449 -3221857.197 10 0 60947 71100.00000 0 2842522.887 24538375.041 -6356224.767 10 0 60947 72000.00000 0 2702480.775 23567013.986 -9367092.121 10 0 60947 72900.00000 0 2372343.180 22269309.939 -12195899.285 10 0 60947 73800.00000 0 1817279.685 20692072.220 -14787590.780 10 0 60947 74700.00000 0 1012567.708 18890290.269 -17091693.909 10 0 60947 75600.00000 0 -55101.377 16924888.598 -19063309.206 10 0 60947 76500.00000 0 -1386800.169 14860249.254 -20663993.057 10 0 60947 77400.00000 0 -2971063.845 12761605.667 -21862514.711 10 0 60947 78300.00000 0 -4784124.150 10692417.237 -22635472.404 10 0 60947 79200.00000 0 -6790670.719 8711834.827 -22967756.148 10 0 60947 80100.00000 0 -8945109.373 6872363.506 -22852847.786 10 0 60947 81000.00000 0 -11193265.885 5217820.485 -22292952.143 10 0 60947 81900.00000 0 -13474464.767 3781673.660 -21298956.458 10 0 60947 82800.00000 0 -15723896.588 2585830.086 -19890218.682 10 0 60947 83700.00000 0 -17875174.947 1639924.531 -18094188.640 10 0 60947 84600.00000 0 -19862976.036 941137.073 -15945869.420 10 0 60947 85500.00000 0 -21625650.019 474546.199 -13487129.640 10 0 60948 0.00000 0 -23107694.360 214001.070 -10765880.549 10 0 60948 900.00000 0 -24261985.924 123474.419 -7835133.009 10 0 60948 1800.00000 0 -25051676.118 158837.484 -4751957.152 10 0 60948 2700.00000 0 -25451672.283 269979.689 -1576360.990 10 0 60948 3600.00000 0 -25449641.477 403182.098 1629885.663 10 0 60948 4500.00000 0 -25046496.046 503642.434 4804459.466 10 0 60948 5400.00000 0 -24256341.403 518043.571 7885699.472 10 0 60948 6300.00000 0 -23105889.416 397055.807 10813806.365 10 0 60948 7200.00000 0 -21633363.279 97666.512 13532001.399 10 0 60948 8100.00000 0 -19886940.986 -414761.595 15987622.519 10 0 60948 9000.00000 0 -17922803.578 -1164790.364 18133136.893 10 0 60948 9900.00000 0 -15802870.478 -2165635.821 19927050.949 10 0 60948 10800.00000 0 -13592316.699 -3418380.669 21334701.443 10 0 60948 11700.00000 0 -11356975.236 -4911702.640 22328913.522 10 0 60948 12600.00000 0 -9160732.072 -6622130.144 22890514.425 10 0 60948 13500.00000 0 -7063021.092 -8514814.935 23008694.160 10 0 60948 14400.00000 0 -5116521.489 -10544790.261 22681207.259 10 0 60948 15300.00000 0 -3365151.776 -12658663.085 21914412.428 10 0 60948 16200.00000 0 -1842442.025 -14796671.223 20723149.649 10 0 60948 17100.00000 0 -570350.410 -16895021.304 19130456.999 10 0 60948 18000.00000 0 441428.066 -18888411.758 17167132.112 10 0 60948 18900.00000 0 1195632.961 -20712637.306 14871145.926 10 0 60948 19800.00000 0 1707083.517 -22307167.670 12286918.896 10 0 60948 20700.00000 0 2001812.791 -23617593.913 9464472.496 10 0 60948 21600.00000 0 2115727.272 -24597840.796 6458471.203 10 0 60948 22500.00000 0 2092848.263 -25212052.700 3327172.444 10 0 60948 23400.00000 0 1983208.925 -25436074.008 131304.054 10 0 60948 24300.00000 0 1840495.578 -25258461.006 -3067109.554 10 0 60948 25200.00000 0 1719532.962 -24680981.782 -6205949.941 10 0 60948 26100.00000 0 1673720.037 -23718582.118 -9224212.482 10 0 60948 27000.00000 0 1752525.403 -22398817.507 -12063195.660 10 0 60948 27900.00000 0 1999149.189 -20760773.966 -14667648.203 10 0 60948 28800.00000 0 2448451.575 -18853521.833 -16986851.070 10 0 60948 29700.00000 0 3125237.030 -16734166.648 -18975612.578 10 0 60948 30600.00000 0 4042968.432 -14465578.229 -20595156.639 10 0 60948 31500.00000 0 5202967.164 -12113892.766 -21813886.180 10 0 60948 32400.00000 0 6594134.713 -9745892.374 -22608006.386 10 0 60948 33300.00000 0 8193209.256 -7426371.698 -22961995.151 10 0 60948 34200.00000 0 9965548.010 -5215601.797 -22868911.221 10 0 60948 35100.00000 0 11866403.783 -3166997.335 -22330533.649 10 0 60948 36000.00000 0 13842643.166 -1325084.517 -21357329.640 10 0 60948 36900.00000 0 15834834.933 276145.488 -19968251.143 10 0 60948 37800.00000 0 17779621.354 1614429.282 -18190364.051 10 0 60948 38700.00000 0 19612273.012 2679920.999 -16058317.192 10 0 60948 39600.00000 0 21269319.661 3475351.307 -13613661.610 10 0 60948 40500.00000 0 22691146.330 4015650.408 -10904033.697 10 0 60948 41400.00000 0 23824445.248 4327052.669 -7982218.594 10 0 60948 42300.00000 0 24624420.162 4445722.448 -4905112.834 10 0 60948 43200.00000 0 25056650.237 4415961.125 -1732607.298 10 0 60948 44100.00000 0 25098535.171 4288073.011 1473586.859 10 0 60948 45000.00000 0 24740261.117 4115982.176 4651145.429 10 0 60948 45900.00000 0 23985247.383 3954702.550 7738347.207 10 0 60948 46800.00000 0 22850055.977 3857769.532 10675274.603 10 0 60948 47700.00000 0 21363768.765 3874742.546 13404975.075 10 0 60948 48600.00000 0 19566859.332 4048884.532 15874560.870 10 0 60948 49500.00000 0 17509607.657 4415116.388 18036226.151 10 0 60948 50400.00000 0 15250124.509 4998332.463 19848162.515 10 0 60948 51300.00000 0 12852068.296 5812147.627 21275356.291 10 0 60948 52200.00000 0 10382149.323 6858128.281 22290253.463 10 0 60948 53100.00000 0 7907524.749 8125539.337 22873280.688 10 0 60948 54000.00000 0 5493191.411 9591617.795 23013213.644 10 0 60948 54900.00000 0 3199483.420 11222361.885 22707386.651 10 0 60948 55800.00000 0 1079776.717 12973803.475 21961740.266 10 0 60948 56700.00000 0 -821505.886 14793711.733 20790706.274 10 0 60948 57600.00000 0 -2470508.084 16623658.264 19216932.205 10 0 60948 58500.00000 0 -3845106.397 18401359.059 17270850.203 10 0 60948 59400.00000 0 -4935582.198 20063196.986 14990097.724 10 0 60948 60300.00000 0 -5744772.480 21546820.873 12418800.141 10 0 60948 61200.00000 0 -6287693.698 22793713.613 9606727.947 10 0 60948 62100.00000 0 -6590654.824 23751622.516 6608343.645 10 0 60948 63000.00000 0 -6689896.982 24376750.507 3481755.680 10 0 60948 63900.00000 0 -6629816.789 24635615.942 287598.904 10 0 60948 64800.00000 0 -6460848.195 24506502.345 -2912137.320 10 0 60948 65700.00000 0 -6237092.201 23980436.209 -6055310.842 10 0 60948 66600.00000 0 -6013794.737 23061650.375 -9080834.856 10 0 60948 67500.00000 0 -5844779.746 21767512.127 -11929868.649 10 0 60948 68400.00000 0 -5779946.680 20127917.556 -14546967.318 10 0 60948 69300.00000 0 -5862939.234 18184176.171 -16881167.414 10 0 60948 70200.00000 0 -6129085.079 15987431.342 -18886986.749 10 0 60948 71100.00000 0 -6603695.080 13596681.805 -20525318.243 10 0 60948 72000.00000 0 -7300795.378 11076486.383 -21764199.772 10 0 60948 72900.00000 0 -8222347.388 8494447.490 -22579444.514 10 0 60948 73800.00000 0 -9357990.166 5918578.352 -22955119.060 10 0 60948 74700.00000 0 -10685317.434 3414663.818 -22883859.582 10 0 60948 75600.00000 0 -12170678.812 1043724.946 -22367019.583 10 0 60948 76500.00000 0 -13770472.562 -1140306.918 -21414646.085 10 0 60948 77400.00000 0 -15432876.165 -3092609.593 -20045284.492 10 0 60948 78300.00000 0 -17099942.343 -4779099.090 -18285615.820 10 0 60948 79200.00000 0 -18709972.497 -6177600.789 -16169933.310 10 0 60948 80100.00000 0 -20200067.544 -7278514.682 -13739468.769 10 0 60948 81000.00000 0 -21508748.465 -8084948.129 -11041582.037 10 0 60948 81900.00000 0 -22578535.799 -8612312.178 -8128829.873 10 0 60948 82800.00000 0 -23358378.954 -8887400.284 -5057933.106 10 0 60948 83700.00000 0 -23805832.631 -8946990.271 -1888662.988 10 0 60948 84600.00000 0 -23888888.446 -8836030.585 1317330.587 10 0 60948 85500.00000 0 -23587384.609 -8605489.417 4497725.250 10 0 60949 0.00000 0 -22893934.658 -8309959.395 7590742.063 10 0 60949 900.00000 0 -21814336.222 -8005120.381 10536348.550 10 0 60949 1800.00000 0 -20367444.302 -7745169.111 13277420.913 10 0 60949 2700.00000 0 -18584513.903 -7580324.329 15760848.425 10 0 60949 3600.00000 0 -16508041.066 -7554513.349 17938554.770 10 0 60949 4500.00000 0 -14190150.983 -7703337.264 19768418.965 10 0 60949 5400.00000 0 -11690600.781 -8052400.105 21215078.808 10 0 60949 6300.00000 0 -9074479.984 -8616071.659 22250602.583 10 0 60949 7200.00000 0 -6409703.837 -9396735.383 22855017.384 10 0 60949 8100.00000 0 -3764402.586 -10384552.595 23016685.115 10 0 60949 9000.00000 0 -1204313.725 -11557752.773 22732520.006 10 0 60949 9900.00000 0 1209716.227 -12883438.086 22008044.188 10 0 60949 10800.00000 0 3424018.629 -14318869.182 20857280.606 10 0 60949 11700.00000 0 5394085.206 -15813179.494 19302485.288 10 0 60949 12600.00000 0 7086165.505 -17309447.643 17373723.621 10 0 60949 13500.00000 0 8478414.360 -18747042.629 15108298.032 10 0 60949 14400.00000 0 9561542.784 -20064145.054 12550036.991 10 0 60949 15300.00000 0 10338945.938 -21200339.924 9748457.937 10 0 60949 16200.00000 0 10826303.355 -22099173.171 6757819.085 10 0 60949 17100.00000 0 11050668.438 -22710565.137 3636077.405 10 0 60949 18000.00000 0 11049085.496 -22992979.578 443772.129 10 0 60949 18900.00000 0 10866792.429 -22915256.543 -2757145.130 10 0 60949 19800.00000 0 10555084.716 -22458030.927 -5904511.229 10 0 60949 20700.00000 0 10168930.961 -21614675.744 -8937159.886 10 0 60949 21600.00000 0 9764440.915 -20391729.050 -11796113.830 10 0 60949 22500.00000 0 9396293.410 -18808784.653 -14425737.068 10 0 60949 23400.00000 0 9115233.648 -16897849.575 -16774824.143 10 0 60949 24300.00000 0 8965746.546 -14702193.686 -18797604.575 10 0 60949 25200.00000 0 8984005.556 -12274738.303 -20454642.253 10 0 60949 26100.00000 0 9196184.854 -9676050.204 -21713611.652 10 0 60949 27000.00000 0 9617207.404 -6972024.122 -22549935.234 10 0 60949 27900.00000 0 10249983.023 -4231349.998 -22947269.184 10 0 60949 28800.00000 0 11085169.730 -1522870.418 -22897827.600 10 0 60949 29700.00000 0 12101469.504 1087061.693 -22402538.540 10 0 60949 30600.00000 0 13266446.813 3537115.050 -21471028.573 10 0 60949 31500.00000 0 14537836.027 5773296.127 -20121435.943 10 0 60949 32400.00000 0 15865282.966 7750953.077 -18380055.837 10 0 60949 33300.00000 0 17192447.278 9436384.221 -16280824.623 10 0 60949 34200.00000 0 18459376.803 10807984.586 -13864653.244 10 0 60949 35100.00000 0 19605053.452 11856883.583 -11178623.022 10 0 60949 36000.00000 0 20570002.663 12587048.503 -8275060.029 10 0 60949 36900.00000 0 21298855.740 13014851.172 -5210506.759 10 0 60949 37800.00000 0 21742756.376 13168117.956 -2044611.971 10 0 60949 38700.00000 0 21861509.400 13084705.194 1161038.768 10 0 60949 39600.00000 0 21625380.781 12810662.212 4344128.060 10 0 60949 40500.00000 0 21016473.030 12398061.393 7442822.897 10 0 60949 41400.00000 0 20029618.189 11902588.586 10396977.800 10 0 60949 42300.00000 0 18672751.238 11380996.916 13149301.097 10 0 60949 43200.00000 0 16966748.710 10888532.320 15646461.648 10 0 60949 44100.00000 0 14944739.731 10476439.796 17840114.953 10 0 60949 45000.00000 0 12650918.720 10189655.423 19687829.428 10 0 60949 45900.00000 0 10138909.495 10064780.856 21153895.984 10 0 60949 46800.00000 0 7469748.765 10128424.810 22210006.505 10 0 60949 47700.00000 0 4709572.437 10395980.405 22835789.424 10 0 60949 48600.00000 0 1927099.910 10870888.929 23019193.364 10 0 60949 49500.00000 0 -808980.578 11544420.361 22756712.499 10 0 60949 50400.00000 0 -3432618.657 12395979.626 22053450.087 10 0 60949 51300.00000 0 -5882894.334 13393925.930 20923019.305 10 0 60949 52200.00000 0 -8106294.787 14496871.424 19387283.264 10 0 60949 53100.00000 0 -10058682.683 15655405.714 17475938.766 10 0 60949 54000.00000 0 -11706875.856 16814175.107 15225951.017 10 0 60949 54900.00000 0 -13029773.875 17914230.657 12680849.133 10 0 60949 55800.00000 0 -14018985.459 18895547.614 9889894.873 10 0 60949 56700.00000 0 -14678931.199 19699611.500 6907139.463 10 0 60949 57600.00000 0 -15026417.568 20271962.678 3790385.678 10 0 60949 58500.00000 0 -15089700.106 20564592.503 600074.454 10 0 60949 59400.00000 0 -14907075.095 20538089.889 -2601882.970 10 0 60949 60300.00000 0 -14525058.825 20163446.962 -5753304.988 10 0 60949 61200.00000 0 -13996231.150 19423446.575 -8792948.246 10 0 60949 62100.00000 0 -13376834.385 18313571.628 -11661701.188 10 0 60949 63000.00000 0 -12724229.156 16842396.160 -14303738.818 10 0 60949 63900.00000 0 -12094315.096 15031439.866 -16667615.544 10 0 60949 64800.00000 0 -11539025.988 12914490.226 -18707274.225 10 0 60949 65700.00000 0 -11104005.962 10536418.999 -20382951.110 10 0 60949 66600.00000 0 -10826565.812 7951541.226 -21661958.404 10 0 60949 67500.00000 0 -10734006.658 5221584.193 -22519328.736 10 0 60949 68400.00000 0 -10842382.657 2413350.314 -22938308.497 10 0 60949 69300.00000 0 -11155755.871 -403829.048 -22910690.056 10 0 60949 70200.00000 0 -11665975.458 -3160743.016 -22436976.058 10 0 60949 71100.00000 0 -12352991.111 -5790943.627 -21526372.326 10 0 60949 72000.00000 0 -13185687.916 -8233271.206 -20196609.303 10 0 60949 72900.00000 0 -14123207.564 -10434157.514 -18473595.356 10 0 60949 73800.00000 0 -15116700.119 -12349610.884 -16390908.661 10 0 60949 74700.00000 0 -16111432.070 -13946800.870 -13989137.675 10 0 60949 75600.00000 0 -17049161.168 -15205176.934 -11315083.336 10 0 60949 76500.00000 0 -17870677.061 -16117075.433 -8420838.965 10 0 60949 77400.00000 0 -18518399.647 -16687790.854 -5362766.511 10 0 60949 78300.00000 0 -18938924.582 -16935110.046 -2200389.890 10 0 60949 79200.00000 0 -19085407.730 -16888330.969 1004772.103 10 0 60949 80100.00000 0 -18919687.298 -16586809.333 4190409.601 10 0 60949 81000.00000 0 -18414053.783 -16078096.361 7294637.893 10 0 60949 81900.00000 0 -17552592.971 -15415748.044 10257201.770 10 0 60949 82800.00000 0 -16332045.542 -14656899.779 13020644.113 10 0 60949 83700.00000 0 -14762147.379 -13859709.732 15531416.030 10 0 60949 84600.00000 0 -12865436.588 -13080779.268 17740907.343 10 0 60949 85500.00000 0 -10676535.542 -12372659.176 19606378.132 10 0 60950 0.00000 0 -8240938.304 -11781546.253 21091774.255 10 0 60950 900.00000 0 -5613352.414 -11345266.039 22168413.013 10 0 60950 1800.00000 0 -2855666.913 -11091626.195 22815525.162 10 0 60950 2700.00000 0 -34625.806 -11037207.454 23020646.728 10 0 60950 3600.00000 0 2780694.508 -11186642.747 22779852.094 10 0 60950 4500.00000 0 5521502.005 -11532413.585 22097825.494 10 0 60950 5400.00000 0 8121893.066 -12055171.949 20987769.817 10 0 60950 6300.00000 0 10521337.650 -12724574.214 19471154.399 10 0 60950 7200.00000 0 12666944.258 -13500592.543 17577306.267 10 0 60950 8100.00000 0 14515412.267 -14335249.552 15342851.908 10 0 60950 9000.00000 0 16034591.748 -15174704.347 12811019.266 10 0 60950 9900.00000 0 17204586.829 -15961603.371 10030812.289 10 0 60950 10800.00000 0 18018357.180 -16637598.123 7056072.785 10 0 60950 11700.00000 0 18481792.746 -17145924.427 3944446.641 10 0 60950 12600.00000 0 18613258.783 -17433935.069 756273.596 10 0 60950 13500.00000 0 18442629.965 -17455478.779 -2446578.496 10 0 60950 14400.00000 0 18009853.952 -17173024.540 -5601912.605 10 0 60950 15300.00000 0 17363104.758 -16559440.689 -8648411.298 10 0 60950 16200.00000 0 16556603.546 -15599352.231 -11526831.582 10 0 60950 17100.00000 0 15648198.811 -14290017.419 -14181162.109 10 0 60950 18000.00000 0 14696808.197 -12641684.629 -16559719.579 10 0 60950 18900.00000 0 13759830.330 -10677412.520 -18616162.357 10 0 60950 19800.00000 0 12890636.392 -8432359.037 -20310400.897 10 0 60950 20700.00000 0 12136247.964 -5952567.288 -21609386.651 10 0 60950 21600.00000 0 11535299.759 -3293297.624 -22487763.552 10 0 60950 22500.00000 0 11116373.855 -516974.382 -22928368.941 10 0 60950 23400.00000 0 10896776.297 2309167.797 -22922573.780 10 0 60950 24300.00000 0 10881808.111 5115640.510 -22470455.229 10 0 60950 25200.00000 0 11064561.814 7833354.743 -21580797.905 10 0 60950 26100.00000 0 11426252.144 10396260.176 -20270923.624 10 0 60950 27000.00000 0 11937066.953 12743860.703 -18566352.764 10 0 60950 27900.00000 0 12557502.078 14823501.355 -16500303.802 10 0 60950 28800.00000 0 13240123.287 16592331.358 -14113040.894 10 0 60950 29700.00000 0 13931680.175 18018861.737 -11451082.454 10 0 60950 30600.00000 0 14575481.770 19084053.051 -8566286.608 10 0 60950 31500.00000 0 15113932.488 19781888.718 -5514832.043 10 0 60950 32400.00000 0 15491120.173 20119411.292 -2356114.893 10 0 60950 33300.00000 0 15655345.914 20116221.849 848415.913 10 0 60950 34200.00000 0 15561487.871 19803465.414 4036461.182 10 0 60950 35100.00000 0 15173098.681 19222347.066 7146087.616 10 0 60950 36000.00000 0 14464147.539 18422243.084 10116933.245 10 0 60950 36900.00000 0 13420333.376 17458488.301 12891378.279 10 0 60950 37800.00000 0 12039913.885 16389934.131 15415658.588 10 0 60950 38700.00000 0 10334015.697 15276380.825 17640900.528 10 0 60950 39600.00000 0 8326412.812 14175992.264 19524057.740 10 0 60950 40500.00000 0 6052782.601 13142801.676 21028732.802 10 0 60950 41400.00000 0 3559470.196 12224412.295 22125869.080 10 0 60950 42300.00000 0 901812.319 11459988.377 22794300.734 10 0 60950 43200.00000 0 -1857910.588 10878619.502 23021151.541 10 0 60950 44100.00000 0 -4652810.059 10498125.383 22802075.970 10 0 60950 45000.00000 0 -7413917.638 10324350.066 22141338.629 10 0 60950 45900.00000 0 -10072802.116 10350974.167 21051731.003 10 0 60950 46800.00000 0 -12564169.268 10559852.458 19554327.047 10 0 60950 47700.00000 0 -14828337.951 10921862.545 17678081.962 10 0 60950 48600.00000 0 -16813491.414 11398229.274 15459281.077 10 0 60950 49500.00000 0 -18477611.583 11942269.861 12940848.441 10 0 60950 50400.00000 0 -19790016.797 12501487.137 10171527.297 10 0 60950 51300.00000 0 -20732439.489 13019923.639 7204947.069 10 0 60950 52200.00000 0 -21299599.157 13440678.090 4098593.815 10 0 60950 53100.00000 0 -21499246.551 13708478.592 912703.236 10 0 60950 54000.00000 0 -21351676.926 13772203.917 -2290902.923 10 0 60950 54900.00000 0 -20888732.537 13587246.168 -5450014.783 10 0 60950 55800.00000 0 -20152335.737 13117614.018 -8503243.227 10 0 60950 56700.00000 0 -19192614.225 12337686.488 -11391216.059 10 0 60950 57600.00000 0 -18065697.204 11233541.661 -14057737.613 10 0 60950 58500.00000 0 -16831275.196 9803802.266 -16450888.677 10 0 60950 59400.00000 0 -15550026.563 8059960.453 -18524044.625 10 0 60950 60300.00000 0 -14281019.444 6026165.992 -20236791.329 10 0 60950 61200.00000 0 -13079199.057 3738484.763 -21555720.359 10 0 60950 62100.00000 0 -11993066.642 1243656.829 -22455087.479 10 0 60950 63000.00000 0 -11062648.285 -1402595.485 -22917321.160 10 0 60950 63900.00000 0 -10317839.562 -4137639.959 -22933370.813 10 0 60950 64800.00000 0 -9777195.973 -6894301.616 -22502887.625 10 0 60950 65700.00000 0 -9447220.211 -9603426.440 -21634234.210 10 0 60950 66600.00000 0 -9322176.195 -12196534.975 -20344322.652 10 0 60950 67500.00000 0 -9384437.410 -14608455.246 -18658283.954 10 0 60950 68400.00000 0 -9605354.277 -16779825.160 -16608975.278 10 0 60950 69300.00000 0 -9946603.245 -18659359.908 -14236334.654 10 0 60950 70200.00000 0 -10361959.627 -20205789.796 -11586596.006 10 0 60950 71100.00000 0 -10799418.185 -21389387.802 -8711380.216 10 0 60950 72000.00000 0 -11203570.589 -22193023.534 -5666680.598 10 0 60950 72900.00000 0 -11518137.953 -22612700.423 -2511763.373 10 0 60950 73800.00000 0 -11688550.151 -22657554.893 691994.551 10 0 60950 74700.00000 0 -11664461.741 -22349319.139 3882306.846 10 0 60950 75600.00000 0 -11402097.325 -21721271.861 6997193.853 10 0 60950 76500.00000 0 -10866326.612 -20816722.848 9976189.113 10 0 60950 77400.00000 0 -10032381.298 -19687096.847 12761512.458 10 0 60950 78300.00000 0 -8887141.265 -18389698.658 15299186.781 10 0 60950 79200.00000 0 -7429935.973 -16985254.393 17540077.145 10 0 60950 80100.00000 0 -5672827.493 -15535332.647 19440832.763 10 0 60950 81000.00000 0 -3640363.296 -14099753.744 20964714.585 10 0 60950 81900.00000 0 -1368808.946 -12734095.099 22082293.779 10 0 60950 82800.00000 0 1095107.701 -11487396.165 22772008.878 10 0 60950 83700.00000 0 3695889.237 -10400157.687 23020572.168 10 0 60950 84600.00000 0 6371329.112 -9502717.441 22823218.581 10 0 60950 85500.00000 0 9054855.484 -8814068.894 22183793.113 99